This is the latest recevied weather packets stored in our database for station/object KY0TEQ-13. If no packets are shown the sender has not sent any weather packets the latest 10 day(s).
| Time | Temp. | Humidity | Pressure | Rain* | Wind** | Luminosity | Snow |
|---|---|---|---|---|---|---|---|
| 1787851749 | 26.11° C | 27% | 1314.4 hPa | 0 mm | - | 654 W/m² | - |
| 1787851444 | 27.22° C | 27% | 1314.1 hPa | 0 mm | - | 648 W/m² | - |
| 1787851139 | 26.11° C | 28% | 1314.4 hPa | 0 mm | - | 642 W/m² | - |
| 1787850834 | 25.56° C | 27% | 1314.5 hPa | 0 mm | - | 634 W/m² | - |
| 1787850530 | 25.56° C | 28% | 1314.5 hPa | 0 mm | - | 627 W/m² | - |
| 1787850224 | 25.56° C | 28% | 1314.4 hPa | 0 mm | - | 619 W/m² | - |
| 1787849918 | 25° C | 29% | 1314.4 hPa | 0 mm | - | 609 W/m² | - |
| 1787849614 | 25° C | 29% | 1314.6 hPa | 0 mm | - | 600 W/m² | - |
| 1787849313 | 24.44° C | 30% | 1314.7 hPa | 0 mm | - | 589 W/m² | - |
| 1787849013 | 25° C | 29% | 1314.9 hPa | 0 mm | - | 575 W/m² | - |
| 1787848708 | 26.11° C | 28% | 1314.9 hPa | 0 mm | - | 570 W/m² | - |
| 1787848403 | 25° C | 30% | 1314.9 hPa | 0 mm | - | 559 W/m² | - |
| 1787848102 | 23.89° C | 31% | 1314.6 hPa | 0 mm | - | 452 W/m² | - |
| 1787847802 | 24.44° C | 31% | 1314.7 hPa | 0 mm | - | 374 W/m² | - |
| 1787847498 | 24.44° C | 30% | 1314.6 hPa | 0 mm | - | 525 W/m² | - |
| 1787847193 | 23.89° C | 31% | 1314.9 hPa | 0 mm | - | 564 W/m² | - |
| 1787846890 | 23.89° C | 32% | 1314.7 hPa | 0 mm | - | 537 W/m² | - |
| 1787846589 | 23.89° C | 32% | 1314.7 hPa | 0 mm | - | 506 W/m² | - |
| 1787846284 | 23.89° C | 31% | 1314.9 hPa | 0 mm | - | 479 W/m² | - |
| 1787845980 | 23.89° C | 31% | 1314.7 hPa | 0 mm | - | 459 W/m² | - |
| 1787845676 | 23.89° C | 31% | 1314.9 hPa | 0 mm | - | 441 W/m² | - |
| 1787845375 | 23.89° C | 31% | 1314.7 hPa | 0 mm | - | 426 W/m² | - |
| 1787845071 | 23.89° C | 31% | 1314.7 hPa | 0 mm | - | 408 W/m² | - |
| 1787844767 | 23.33° C | 33% | 1314.7 hPa | 0 mm | - | 394 W/m² | - |
| 1787844466 | 23.33° C | 33% | 1314.9 hPa | 0 mm | - | 372 W/m² | - |
* Rain latest hour (hover to see other rain measurements)
** Current wind speed in m/s (hover to see current wind gust speed)